TimeAKDT,TemperatureF,Dew PointF,Humidity,Sea Level PressureIn,VisibilityMPH,Wind Direction,Wind SpeedMPH,Gust SpeedMPH,PrecipitationIn,Events,Conditions,WindDirDegrees,DateUTC
12:18 AM,48.2,46.4,93,29.96,7.0,Calm,Calm,-,0.01,Rain,Light Rain,0,2013-09-13 08:18:00
12:28 AM,48.2,46.4,93,29.95,9.0,Calm,Calm,-,0.01,Rain,Light Rain,0,2013-09-13 08:28:00
12:53 AM,48.9,46.9,93,29.95,9.0,North,3.5,-,0.02,Rain,Light Rain,350,2013-09-13 08:53:00
1:53 AM,48.0,46.9,96,29.95,3.0,Calm,Calm,-,0.09,Rain,Rain,0,2013-09-13 09:53:00
2:53 AM,48.9,48.0,97,29.93,4.0,Calm,Calm,-,0.09,Rain,Light Rain,0,2013-09-13 10:53:00
3:53 AM,48.9,48.0,97,29.92,7.0,Calm,Calm,-,0.04,Rain,Light Rain,0,2013-09-13 11:53:00
4:53 AM,48.9,48.0,97,29.93,4.0,Calm,Calm,-,0.08,Rain,Rain,0,2013-09-13 12:53:00
5:53 AM,48.0,46.9,96,29.91,10.0,NNW,3.5,-,0.05,Rain,Light Rain,330,2013-09-13 13:53:00
6:53 AM,48.0,46.9,96,29.89,10.0,North,3.5,-,0.01,Rain,Light Rain,10,2013-09-13 14:53:00
7:36 AM,48.2,46.4,93,29.89,10.0,WNW,3.5,-,0.01,Rain,Light Rain,290,2013-09-13 15:36:00
7:53 AM,48.0,46.9,96,29.89,10.0,Calm,Calm,-,0.01,Rain,Light Rain,0,2013-09-13 15:53:00
8:53 AM,48.9,48.0,97,29.90,10.0,Calm,Calm,-,0.01,Rain,Light Rain,0,2013-09-13 16:53:00
9:53 AM,48.9,46.9,93,29.91,10.0,Calm,Calm,-,0.01,Rain,Light Rain,0,2013-09-13 17:53:00
10:43 AM,50.0,48.2,94,29.90,10.0,Calm,Calm,-,0.01,,Overcast,0,2013-09-13 18:43:00
10:53 AM,50.0,48.9,96,29.90,10.0,Calm,Calm,-,0.01,Rain,Light Rain,0,2013-09-13 18:53:00
11:53 AM,51.1,48.9,92,29.91,10.0,South,3.5,-,0.01,,Overcast,180,2013-09-13 19:53:00
12:53 PM,52.0,50.0,93,29.91,10.0,Calm,Calm,-,0.00,,Overcast,0,2013-09-13 20:53:00
1:53 PM,53.1,50.0,89,29.91,10.0,Calm,Calm,-,N/A,,Overcast,0,2013-09-13 21:53:00
2:53 PM,53.1,51.1,93,29.90,10.0,Calm,Calm,-,0.00,Rain,Light Rain,0,2013-09-13 22:53:00
3:53 PM,53.1,51.1,93,29.89,10.0,Calm,Calm,-,0.01,Rain,Light Rain,0,2013-09-13 23:53:00
4:53 PM,53.1,51.1,93,29.90,10.0,Calm,Calm,-,0.00,Rain,Light Rain,0,2013-09-14 00:53:00
5:53 PM,55.9,48.0,75,29.88,10.0,NNW,5.8,-,0.00,,Overcast,340,2013-09-14 01:53:00
6:53 PM,55.0,46.9,74,29.87,10.0,NNE,5.8,-,N/A,,Overcast,30,2013-09-14 02:53:00
7:53 PM,55.0,46.9,74,29.88,10.0,NNW,9.2,-,0.01,,Overcast,340,2013-09-14 03:53:00
8:53 PM,55.0,46.0,72,29.88,10.0,North,10.4,-,0.00,Rain,Light Rain,360,2013-09-14 04:53:00
9:53 PM,54.0,46.0,75,29.89,10.0,North,8.1,-,0.01,,Mostly Cloudy,350,2013-09-14 05:53:00
10:53 PM,55.0,45.0,69,29.89,10.0,North,12.7,20.7,0.00,,Overcast,350,2013-09-14 06:53:00
11:53 PM,55.0,46.0,72,29.89,10.0,North,10.4,20.7,N/A,,Overcast,350,2013-09-14 07:53:00